Location: Alpha Ridge Park
(39.3209°N, 76.9128°W)
Time: 00:56:31
(UTC-04:00)

Vanguard 2 Rocket - Pass Details

Date: 25 May 2019
Orbit: 554 x 3326 km, 32.9° (Epoch: 19 June)

Event Time Altitude Azimuth Distance (km) Brightness Sun altitude
Rises 05:28:42 0° 228° (SW) 7,281 - -3.9°
Exits shadow 05:29:55 - 227° (SW) 7,048 10.8 -3.6°
Reaches altitude 10° 05:33:55 10° 223° (SW) 6,276 10.6 -3.0°
Maximum altitude 05:52:17 48° 157° (SSE) 3,441 9.8 0.1°
Drops below altitude 10° 06:05:14 10° 89° (E) 4,563 11.9 2.4°
Sets 06:08:20 0° 84° (E) 5,238 12.5 2.9°
